Regional Weather Roundup
Issued by NWS

Home | Current Version | Previous Version | Graphics & Text | Print | Product List | Glossary On
Versions: 1 2 3 4 5 6 7 8 9 10 11 12 13 14 15 16 17 18 19 20 21 22 23 24 25 26 27 28 29 30 31 32 33 34 35 36 37 38 39 40 41 42 43 44 45 46 47 48 49 50
000
ASUS43 KLOT 221308
RWRIL

ILLINOIS REGIONAL WEATHER ROUNDUP
NATIONAL WEATHER SERVICE CHICAGO/ROMEOVILLE IL
700 AM CST WED FEB 22 2017

NOTE: "FAIR" INDICATES FEW OR NO CLOUDS BELOW 12,000 FEET WITH NO
SIGNIFICANT WEATHER AND/OR OBSTRUCTIONS TO VISIBILITY.

* THESE STATIONS ARE NOT UNDER NWS QUALITY CONTROL. THEY ALSO MAY NOT
  REPORT WEATHER SUCH AS PRECIPITATION OR FOG.

ILZ001-002-007-009-015-016-024-221400-
NORTHWEST ILLINOIS

CITY           SKY/WX    TMP DP  RH WIND       PRES   REMARKS
MOLINE         FOG       54  52  93 SW10      29.77F VSB 1
STERLING*      LGT RAIN  51  51 100 VRB5      29.80R VSB 1/4
SAVANNA*       DRZL/FOG  50  50  99 S6        29.76F VSB<1/4
$$

ILZ003-004-008-010-011-017-018-221400-
NORTH CENTRAL ILLINOIS

CITY           SKY/WX    TMP DP  RH WIND       PRES   REMARKS
ROCKFORD       FOG       51  50  96 SW5       29.80S VSB 1/8
FREEPORT*      FOG       49  49 100 S8        29.79S VSB 1/2
ROCHELLE*      DRZL/FOG  51  51 100 S9        29.79F VSB 1/4
DE KALB*       LGT RAIN  52  51  99 S12       29.79F VSB<1/4
PERU*          CLOUDY    54  53  97 S13       29.79F FOG
$$

ILZ005-006-012>014-019>023-221400-
NORTHEAST ILLINOIS

CITY           SKY/WX    TMP DP  RH WIND       PRES   REMARKS
CHICAGO-OHARE  FOG       53  52  96 SW10      29.79F VSB 1/2
CHICAGO-MIDWAY FOG       54  52  93 S9        29.81F VSB 1/4
AURORA         FOG       54  53  97 S8        29.80F VSB 1/4
LANSING*       CLOUDY    51  51 100 SW6       29.84S FOG
JOLIET*        FOG       52  52 100 S3        29.83S VSB 1/4
WAUKEGAN       CLOUDY    53  53 100 SW10      29.77F FOG
DUPAGE AIRPORT FOG       52  51  97 SW9       29.79F VSB 1/2
KANKAKEE*      FOG       47  46  97 CALM      29.85S VSB<1/4
WHEELING       CLOUDY    53  53 100 SW6       29.79F FOG
MORRIS*        FOG       52  52  99 SW8       29.81F VSB 1/4
ROMEOVILLE*    DRZL/FOG  51  51 100 SW6       29.82F VSB<1/4
NORTHERLY ISL    N/A     54  52  93 S7          N/A
$$

LMZ740>746-221400-
SOUTHERN LAKE MICHIGAN

STATION/POSITION SKY/WX   TEMP    WIND        PRES    VSBY  WAVE
                          AIR SEA DIR/SP/G                  HT/PER
                          (F)     (DEG/KT/KT) (MB)    (MI)  (FT/S)
HARRISON CRIB              55     200/ 15/ 17   N/A
BURNHAM HARBOR             54     210/  8/ 11   N/A
CALUMET HARBOR             53     200/  8/ 10 1009.2F
BURNS HARBOR               54     180/  9/ 14 1010.8
MICHIGAN CITY              53     170/  7/  9   N/A
$$

ILZ025>027-034>036-040-047-049-050-058-095>099-221400-
WEST-CENTRAL ILLINOIS

CITY           SKY/WX    TMP DP  RH WIND       PRES   REMARKS
QUINCY         FOG       53  53 100 S13       29.82S VSB 1/4
GALESBURG*     DRZL/FOG  51  51 100 S9        29.80S VSB<1/4
MACOMB*        FOG       52  52 100 S10       29.83F VSB 1/2
JACKSONVILLE*  FOG       50  50 100 S8        29.83F VSB<1/4
PITTSFIELD*    FOG       54  54 100 S7        29.85S VSB 1/4
$$

ILZ028>032-037-038-041>044-048-051>054-059>061-221400-
CENTRAL ILLINOIS

CITY           SKY/WX    TMP DP  RH WIND       PRES   REMARKS
PONTIAC        FOG       48  48  99 S5        29.85S VSB<1/4
BLOOMINGTON    FOG       48  48 100 S7        29.85F VSB 1/8
DECATUR        FOG       46  46 100 S3        29.86F VSB<1/4
PEORIA         FOG       53  53 100 S7        29.81F VSB 1/4
LACON*         FOG       54  54 100 S7        29.80F VSB 1
LINCOLN*       FOG       46  46 100 CALM      29.84F VSB<1/4
SPRINGFIELD    FOG       48  47  96 S6        29.85F VSB<1/4
TAYLORVILLE    FOG       47  47 100 S3        29.87S VSB<1/4
$$

ILZ033-039-045-046-055>057-062-063-221400-
EAST-CENTRAL ILLINOIS

CITY           SKY/WX    TMP DP  RH WIND       PRES   REMARKS
CHAMPAIGN      FOG       46  45  96 S6        29.86F VSB<1/4
RANTOUL*       FOG       46  46  99 S3        29.86F VSB<1/4
MATTOON        FOG       48  48 100 S7        29.87F VSB<1/4
PARIS*         FOG       49  49 100 CALM      29.89S VSB<1/4
$$

ILZ079-100>102-221400-
SOUTHWEST ILLINOIS

CITY           SKY/WX    TMP DP  RH WIND       PRES   REMARKS
ALTON          FOG       43  43 100 VRB3      29.89R VSB 1/16
BELLEVILLE     FOG       45  45 100 CALM      29.88R VSB<1/4
CAHOKIA*       FOG       44  41  89 SW3       29.89R VSB 1/4
SPARTA*          N/A     53  52  99 CALM      29.91R FOG
$$

ILZ064>066-069>071-074>076-080>082-084>086-088>090-092>094-221400-
SOUTH-CENTRAL ILLINOIS

CITY           SKY/WX    TMP DP  RH WIND       PRES   REMARKS
CARBONDALE     CLOUDY    53  53 100 CALM      29.89F FOG
CAIRO*         CLOUDY    55  55 100 CALM      29.90R FOG
EFFINGHAM*     FOG       46  46 100 CALM      29.91S VSB<1/4
MARION         MOCLDY    50  50 100 SE6       29.90F FOG
MT. VERNON     FOG       45  45 100 CALM      29.90R VSB<1/4
CENTRALIA*     FOG       45  45 100 CALM      29.89R VSB<1/4
SALEM*         FOG       49  48  96 CALM      29.89S VSB<1/4
METROPOLIS*    CLOUDY    56  56  98 CALM      29.91S FOG
$$

ILZ067-068-072-073-078-083-087-091-221400-
SOUTHEAST ILLINOIS

CITY           SKY/WX    TMP DP  RH WIND       PRES   REMARKS
LAWRENCEVILLE  FOG       48  48 100 S6        29.90R VSB<1/4
FLORA*         FOG       45  45  99 CALM      29.90R VSB<1/4
FAIRFIELD*     FOG       47  47 100 CALM      29.89S VSB<1/4
HARRISBURG*    FOG       48  48 100 CALM      29.91R VSB<1/4
ROBINSON*      FOG       45  45 100 CALM      29.90S VSB<1/4
CARMI*         FOG       48  48 100 CALM      29.90S VSB<1/4
$$

ABBREVIATIONS USED IN REMARKS
   TC - TEMPERATURE IN CELSIUS
  WCI - WIND CHILL INDEX
   HX - HEAT INDEX
  VSB - VISIBILITY
$$





USA.gov is the U.S. government's official web portal to all federal, state and local government web resources and services.